Back to catalog

STARLINK-32894

AliveCommunicationsVLEO
NORAD 62969·PAYLOAD·🇺🇸 United States

Launched Feb 11, 2025 from Vandenberg Space Force Base

Loading…

Next Passes (next 24 hours)

TLE

FreshSource: CelesTrak SupGP

Epoch: Sep 14, 2026, 13:50 UTC

1 62969C 25029X   26257.57687500 -.00001616  00000+0 -47809-4 0  2574
2 62969  53.1586  73.0517 0001326 101.7630 336.1510 15.34351519    12

Track STARLINK-32894 in real time with AllMySat

Download on the App Store